Regional Weather Roundup
Issued by NWS

Home | Current Version | Previous Version | Text Only | Print | Product List | Glossary Off
Versions: 1 2 3 4 5 6 7 8 9 10 11 12 13 14 15 16 17 18 19 20 21 22 23 24 25 26 27 28 29 30 31 32 33 34 35 36 37 38 39 40 41 42 43 44 45 46 47 48 49 50

000
ASUS43 KLOT 261021
RWRIL

ILLINOIS REGIONAL WEATHER ROUNDUP
NATIONAL WEATHER SERVICE CHICAGO/ROMEOVILLE IL
500 AM CDT TUE MAY 26 2015

NOTE: "FAIR" INDICATES FEW OR NO CLOUDS BELOW 12,000 FEET WITH NO
SIGNIFICANT WEATHER AND/OR OBSTRUCTIONS TO VISIBILITY.

* THESE STATIONS ARE NOT UNDER NWS QUALITY CONTROL. THEY ALSO MAY NOT
  REPORT WEATHER SUCH AS PRECIPITATION OR FOG.

ILZ001-002-007-009-015-016-024-261100-
NORTHWEST ILLINOIS

CITY           SKY/WX    TMP DP  RH WIND       PRES   REMARKS
MOLINE         CLOUDY    68  65  90 SE7       29.82F
STERLING*      MOCLDY    66  64  94 SE6       29.86F
SAVANNA*       MOCLDY    68  65  90 S9        29.86S
$$

ILZ003-004-008-010-011-017-018-261100-
NORTH CENTRAL ILLINOIS

CITY           SKY/WX    TMP DP  RH WIND       PRES   REMARKS
ROCKFORD       MOCLDY    67  63  87 S8        29.91S
FREEPORT*      PTCLDY    65  64  95 S9        29.90S
ROCHELLE*      MOCLDY    65  64  97 S8        29.91S
DE KALB*       CLOUDY    64  62  96 S8        29.93S FOG
PERU*          CLOUDY    68  65  90 S9        29.90F
$$

ILZ005-006-012>014-019>023-261100-
NORTHEAST ILLINOIS

CITY           SKY/WX    TMP DP  RH WIND       PRES   REMARKS
CHICAGO-OHARE  MOCLDY    65  63  93 S8        29.93R
CHICAGO-MIDWAY MOCLDY    70  66  87 S10G18    29.94R
AURORA         CLOUDY    67  63  87 SE8       29.93S FOG
LANSING*       CLOUDY    66  63  89 S9        29.96S
JOLIET*        CLOUDY    69  66  92 S6        29.94S
WAUKEGAN       PTCLDY    65  63  93 S7        29.92R
DUPAGE AIRPORT CLOUDY    67  64  90 S13       29.93R
KANKAKEE*      CLOUDY    67  65  92 S12G20    29.96S
WHEELING       MOCLDY    67  64  90 S10       29.95R
MORRIS*        CLOUDY    66  64  94 S8        29.92F
ROMEOVILLE*    CLOUDY    67  64  91 S15       29.94S
NORTHERLY ISL    N/A     68  63  84 S16         N/A
$$

LMZ740>746-261100-
SOUTHERN LAKE MICHIGAN

STATION/POSITION SKY/WX   TEMP    WIND        PRES    VSBY  WAVE
                          AIR SEA DIR/SP/G                  HT/PER
                          (F)     (DEG/KT/KT) (MB)    (MI)  (FT/S)
SOUTHERN BUOY              46 38  180/ 12/ 14 1014.1F         1/ 3
HARRISON CRIB              65     180/ 17/ 18   N/A
BURNHAM HARBOR             68     190/ 15       N/A
CALUMET HARBOR             68     180/  8/ 11   N/A
BURNS HARBOR               67     180/  9/ 15 1014.9R
MICHIGAN CITY              67     150/ 13/ 18   N/A
MICHIGAN CITY 6N           61 52  190/  8/ 14   N/A           1
ST. JOSEPH                 61 54  190/ 10/ 10   N/A           1/ 2
$$

ILZ025>027-034>036-040-047-049-050-058-095>099-261100-
WEST-CENTRAL ILLINOIS

CITY           SKY/WX    TMP DP  RH WIND       PRES   REMARKS
QUINCY         CLOUDY    69  66  90 SE8       29.81F
GALESBURG*     CLOUDY    68  66  92 SE9       29.85F
MACOMB*        CLOUDY    68  67  94 SE10      29.85F
JACKSONVILLE*  CLOUDY    72  68  88 SE13      29.85F
PITTSFIELD*    LGT RAIN  70  67  88 SE10      29.84F
$$

ILZ028>032-037-038-041>044-048-051>054-059>061-261100-
CENTRAL ILLINOIS

CITY           SKY/WX    TMP DP  RH WIND       PRES   REMARKS
PONTIAC        CLOUDY    69  67  93 S15       29.93F
BLOOMINGTON    CLOUDY    70  66  88 S14       29.94S
DECATUR        CLOUDY    70  66  87 S12       29.93F
PEORIA         CLOUDY    71  66  84 S15       29.89F
LACON*         CLOUDY    68  65  88 S10       29.88F
LINCOLN*       CLOUDY    71  66  85 S10       29.89S
SPRINGFIELD    LGT RAIN  71  68  90 S10       29.89F FOG
TAYLORVILLE    CLOUDY    68  66  94 SE8       29.91F FOG
$$

ILZ033-039-045-046-055>057-062-063-261100-
EAST-CENTRAL ILLINOIS

CITY           SKY/WX    TMP DP  RH WIND       PRES   REMARKS
CHAMPAIGN      CLOUDY    69  66  90 S12       29.96S
DANVILLE*      CLOUDY    68  65  92 S9        29.95F
RANTOUL*       CLOUDY    70  67  91 S10       29.96S
MATTOON        CLOUDY    68  66  93 S10       29.95F FOG
PARIS*         CLOUDY    68  66  93 S9        30.00S FOG
$$

ILZ079-100>102-261100-
SOUTHWEST ILLINOIS

CITY           SKY/WX    TMP DP  RH WIND       PRES   REMARKS
ALTON          CLOUDY    71  71 100 SE10      29.87F
BELLEVILLE     CLOUDY    72  71  99 SE12      29.87F
CAHOKIA*       CLOUDY    73  68  84 SE14      29.86F
SPARTA*        CLOUDY    71  68  90 SE9G20    29.91S
$$

ILZ064>066-069>071-074>076-080>082-084>086-088>090-092>094-261100-
SOUTH-CENTRAL ILLINOIS

CITY           SKY/WX    TMP DP  RH WIND       PRES   REMARKS
CARBONDALE     CLOUDY    71  66  84 S14G22    29.92F
CAIRO*         MOCLDY    71  68  92 SE14      29.94F
EFFINGHAM*     CLOUDY    69  65  88 SE9       29.97S FOG
MARION         CLOUDY    72  68  88 S10G16    29.95F
MT. VERNON     CLOUDY    72  64  78 SE10G16   29.95S
CENTRALIA*     CLOUDY    71  66  84 SE12      29.93R
SALEM*         CLOUDY    73  67  84 SE9       29.94F
METROPOLIS*    CLOUDY    71  69  95 S7        29.96F
$$

ILZ067-068-072-073-078-083-087-091-261100-
SOUTHEAST ILLINOIS

CITY           SKY/WX    TMP DP  RH WIND       PRES   REMARKS
LAWRENCEVILLE  CLOUDY    69  66  90 S15       30.00S
FLORA*         CLOUDY    69  66  90 S13       29.97S
FAIRFIELD*     CLOUDY    70  67  89 SE10G16   29.96S
HARRISBURG*    MOCLDY    70  68  93 S10       29.98F
ROBINSON*      CLOUDY    69  66  91 S10       30.01S
CARMI*         CLOUDY    70  63  78 SE12      29.98F
$$

ABBREVIATIONS USED IN REMARKS
   TC - TEMPERATURE IN CELSIUS
  WCI - WIND CHILL INDEX
   HX - HEAT INDEX
  VSB - VISIBILITY
$$



USA.gov is the U.S. government's official web portal to all federal, state and local government web resources and services.